Regional Weather Roundup
Issued by NWS

Home | Current Version | Previous Version | Graphics & Text | Print | Product List | Glossary On
Versions: 1 2 3 4 5 6 7 8 9 10 11 12 13 14 15 16 17 18 19 20 21 22 23 24 25 26 27 28 29 30 31 32 33 34 35 36 37 38 39 40 41 42 43 44 45 46 47 48 49 50
000
ASUS43 KFSD 251802
RWRSD

WEATHER ROUNDUP FOR SOUTH DAKOTA
NATIONAL WEATHER SERVICE SIOUX FALLS SD
100 PM CDT SAT APR 25 2015

NOTE: "FAIR" INDICATES FEW OR NO CLOUDS BELOW 12,000 FEET WITH NO
SIGNIFICANT WEATHER AND/OR OBSTRUCTIONS TO VISIBILITY.


SDZ001>005-009-010-012>017-251900-
NORTHWEST AND NORTH CENTRAL SOUTH DAKOTA

CITY           SKY/WX    TMP DP  RH WIND       PRES   REMARKS
BUFFALO          N/A     47  43  86 SE12      29.66S
FAITH            N/A     48  43  82 E13       29.74S
MOBRIDGE       CLOUDY    50  43  77 E13       29.76F
$$

SDZ012>016-024>037-041>051-057-063-072>074-251900-
SOUTHWEST AND SOUTH CENTRAL SOUTH DAKOTA

CITY           SKY/WX    TMP DP  RH WIND       PRES   REMARKS
RAPID CTY ARPT CLOUDY    49  46  90 SE15      29.72R FOG
PIERRE         CLOUDY    49  47  93 E8        29.76R FOG
CUSTER         MOSUNNY   56  38  50 SE7       29.72F
ELLSWORTH AFB  CLOUDY    48  47  97 SE14      29.71
PHILIP         CLOUDY    49  46  90 E9        29.74S
PINE RIDGE     CLOUDY    50  46  86 E9        29.73S
WINNER         CLOUDY    54  48  80 E12       29.74S
$$

SDZ004>011-016>023-039-040-251900-
NORTHEAST SOUTH DAKOTA

CITY           SKY/WX    TMP DP  RH WIND       PRES   REMARKS
ABERDEEN       CLOUDY    47  41  80 E13       29.83R
WATERTOWN      CLOUDY    45  40  82 E10       29.82R
BROOKINGS      PTSUNNY   50  43  76 E13       29.80S
SISSETON         N/A     45  43  93 SE10      29.86R
$$

SDZ017-020-022-023-036>040-048>070-251900-
SOUTHEAST SOUTH DAKOTA

CITY           SKY/WX    TMP DP  RH WIND       PRES   REMARKS
SIOUX FALLS    CLOUDY    59  45  59 E17G23    29.76R
HURON          PTSUNNY   55  44  66 E10       29.78F
MITCHELL       CLOUDY    51  46  83 E9        29.78S
YANKTON        CLOUDY    57  43  58 NE12      29.74R
$$

ABBREVIATIONS USED IN REMARKS
   TC - TEMPERATURE IN CELSIUS
  WCI - WIND CHILL INDEX
   HX - HEAT INDEX
  VSB - VISIBILITY




USA.gov is the U.S. government's official web portal to all federal, state and local government web resources and services.